Simultaneous Nadir Overpasses (SNOs) Predictions

Prediction of SNOs between LANDSAT-8 and METOP-B Satellite Orbit:

Table of predicted SNOs for the next 14.0 days since TLE Epoch: 8/31/2019
Index Date (LANDSAT-8) Time (LANDSAT-8) Lat,Lon (LANDSAT-8) SZA (LANDSAT-8 ) Date (METOP-B) Time (METOP-B) Lat,Lon (METOP-B) SZA (METOP-B ) Distance(km) Time Diff (sec)
1 09/01/2019 11:01:44 -81.15,-124.98 105.02 09/01/2019 11:00:30 -81.16,-124.80 105.02 3.22 74
2 09/01/2019 11:51:09 81.17, 43.08 75.06 09/01/2019 11:51:09 81.18, 43.19 75.08 1.92 0
3 09/01/2019 12:40:35 -81.20,-148.94 104.88 09/01/2019 12:41:48 -81.20,-148.79 104.83 2.56 73
4 09/04/2019 06:35:59 -81.14, -58.61 103.98 09/04/2019 06:34:52 -81.14, -58.79 104.03 3.20 67
5 09/04/2019 07:25:24 81.17, 109.43 76.10 09/04/2019 07:25:30 81.17, 109.53 76.11 1.82 6
6 09/07/2019 02:10:14 -81.16, 8.12 102.87 09/07/2019 02:09:13 -81.15, 7.96 102.92 3.00 61
7 09/07/2019 02:59:39 81.19, 176.14 77.20 09/07/2019 02:59:51 81.18, 176.24 77.22 1.79 12
8 09/09/2019 21:44:30 -81.16, 74.47 101.81 09/09/2019 21:43:35 -81.15, 74.32 101.85 2.67 55
9 09/09/2019 22:33:55 81.18,-117.54 78.26 09/09/2019 22:34:13 81.18,-117.44 78.28 1.63 18
10 09/12/2019 17:18:45 -81.15, 140.81 100.73 09/12/2019 17:17:56 -81.15, 140.67 100.77 2.35 49




NCC Satellite Simultaneous Nadir Overpasses (SNOs) Prediction Service
